Back to catalog

STARLINK-30364

AliveCommunicationsVLEO
NORAD 57741·PAYLOAD·🇺🇸 United States

Launched Sep 1, 2023 from Cape Canaveral Space Force Station

Loading…

Next Passes (next 24 hours)

TLE

FreshSource: CelesTrak SupGP

Epoch: Sep 14, 2026, 22:21 UTC

1 57741C 23131K   26257.93173611 -.00022512  00000+0 -81536-3 0  2573
2 57741  42.9997 183.4685 0001313 262.6399  19.5309 15.27590135    12

Track STARLINK-30364 in real time with AllMySat

Download on the App Store